sat.trackr.live / text

‹ back to catalog

STARLINK-36633

NORAD 67632 · 2026-020R

PAYLOAD ACTIVE UNKNOWN

§ Identity

Operator
Country
US
Launch date
2026-01-30
Launch site
AFETR
Launch vehicle
Mass (kg)
RCS (m²)

Purposes: comms

External: N2YO · Heavens-Above · Gunter

§ Orbital elements

Epoch: 2026-09-19T21:43:39.454464Z

Period
94.27 min
Inclination
42.9987°
Eccentricity
0.0001333
Mean motion
15.27584011 rev/d
Perigee alt
482.1 km
Apogee alt
484.0 km
Semi-major
6,861.2 km
B*
2.7198e-4
RAAN
123.1871°
Arg perigee
265.9770°
Mean anomaly
94.0930°
Rev number
3,581

§ Raw data

STARLINK-366331 67632U 26020R   26262.90531776  .00007230  00000+0  27198-3 0  99912 67632  42.9987 123.1871 0001333 265.9770  94.0930 15.27584011 35810

JSON: /api/v1/satellites/67632 · /tle

For live sub-satellite position, see the globe view (requires WebGL).

§ Visibility from observer

Set your observer location to see the next 7 days of passes ≥ 10°. The values pass through the URL so the page stays shareable.

No JS? Fill the form by hand. The geolocation button needs JavaScript.